TimeCST,TemperatureF,Dew PointF,Humidity,Sea Level PressureIn,VisibilityMPH,Wind Direction,Wind SpeedMPH,Gust SpeedMPH,PrecipitationIn,Events,Conditions,WindDirDegrees,DateUTC
1:57 AM,21.0,14.0,74,30.13,10.0,WNW,8.1,-,N/A,,Clear,300,2012-12-29 07:57:00
2:57 AM,19.9,14.0,78,30.14,10.0,WNW,8.1,-,N/A,,Clear,300,2012-12-29 08:57:00
3:57 AM,19.0,12.9,77,30.15,10.0,NW,10.4,-,N/A,,Clear,310,2012-12-29 09:57:00
4:57 AM,17.1,12.0,81,30.18,9.0,WNW,8.1,-,N/A,,Partly Cloudy,290,2012-12-29 10:57:00
5:38 AM,17.6,12.2,79,30.16,9.0,WNW,8.1,-,N/A,,Overcast,290,2012-12-29 11:38:00
5:57 AM,18.0,12.9,81,30.22,9.0,West,9.2,-,N/A,,Overcast,280,2012-12-29 11:57:00
6:12 AM,17.6,14.0,86,30.18,9.0,WNW,9.2,-,N/A,,Overcast,290,2012-12-29 12:12:00
6:57 AM,19.0,14.0,81,30.25,8.0,West,10.4,-,N/A,,Overcast,280,2012-12-29 12:57:00
8:57 AM,19.0,15.1,85,30.32,7.0,West,10.4,-,N/A,,Overcast,280,2012-12-29 14:57:00
9:57 AM,19.9,16.0,85,30.35,6.0,NW,10.4,-,0.00,,Overcast,310,2012-12-29 15:57:00
10:46 AM,23.0,17.6,80,30.30,7.0,WNW,8.1,-,N/A,,Scattered Clouds,300,2012-12-29 16:46:00
10:57 AM,24.1,18.0,77,30.35,8.0,West,9.2,-,N/A,,Partly Cloudy,280,2012-12-29 16:57:00
11:57 AM,28.0,19.9,72,30.35,10.0,West,8.1,-,N/A,,Clear,270,2012-12-29 17:57:00
12:57 PM,30.0,21.0,69,30.32,10.0,WNW,6.9,-,N/A,,Clear,300,2012-12-29 18:57:00
1:57 PM,30.9,19.9,64,30.31,10.0,NW,9.2,-,N/A,,Clear,310,2012-12-29 19:57:00
2:57 PM,33.1,19.0,56,30.34,10.0,West,9.2,-,N/A,,Clear,270,2012-12-29 20:57:00
4:57 PM,30.0,19.0,64,30.38,10.0,West,6.9,-,N/A,,Clear,280,2012-12-29 22:57:00
5:57 PM,27.0,17.1,66,30.39,10.0,WSW,4.6,-,N/A,,Clear,250,2012-12-29 23:57:00
7:57 PM,25.0,17.1,72,30.40,10.0,SW,4.6,-,N/A,,Clear,230,2012-12-30 01:57:00
9:57 PM,23.0,15.1,72,30.42,10.0,SSW,8.1,-,N/A,,Clear,200,2012-12-30 03:57:00
11:57 PM,21.9,16.0,78,30.45,10.0,SSW,3.5,-,N/A,,Clear,200,2012-12-30 05:57:00